Home > Weather > Panama City > Past weeks

Flag for USA Past Weather in Panama City, Florida, USA — Yesterday and Last 2 Weeks

Now
90 °F

Sunny.


Feels Like: 103 °F
Forecast: 80 / 90 °F
Wind: 9 mph from West

Location: Tyndall Air Force Base

Current Time: Jul 29, 2016 at 12:55:24 PM

Latest Report: Jul 29, 2016 at 11:56 AM


Visibility: 10 mi

Pressure: 30.07 "Hg

Humidity: 67%

Dew Point: 77 °F

Location of Panama CityLocation

Past Weather in Panama City — Graph

°F

Panama City Temperature Yesterday

Maximum temperature yesterday: 89 °F (at 1:56 PM)
Minimum temperature yesterday: 76 °F (at 4:56 AM)
Average temperature yesterday: 83 °F

High & Low Weather Summary for the Past Weeks

 TemperatureHumidityPressure
High92 °F (Jul 19, 3:56 PM)97% (Jul 15, 3:56 AM)30.25 "Hg (Jul 15, 3:56 AM)
Low73 °F (Jul 18, 11:56 PM)43% (Jul 21, 10:56 AM)29.97 "Hg (Jul 23, 5:56 PM)
Average82 °F79%30.08 "Hg
* Reported Jul 14 10:56 AM — Jul 29 10:56 AM, Panama City, Weather by CustomWeather, © 2016

Note: Actual official high and low records may vary slightly from our data, if they occured in-between our weather recording intervals... More about our weather records

Advertising

Panama City Weather History for the Previous 24 Hours

Scroll right to see more
 ConditionsComfort  
Time TempWeatherWind HumidityBarometerVisibility
10:56 AM
Fri, Jul 29
89 °FPassing clouds.9 mph65%30.07 "Hg10 mi
9:56 AM88 °FPassing clouds.8 mph68%30.07 "Hg10 mi
8:56 AM87 °FScattered clouds.5 mph68%30.07 "Hg10 mi
7:56 AM87 °FPassing clouds.3 mph68%30.06 "Hg10 mi
6:56 AM81 °FPassing clouds.No wind85%30.04 "Hg10 mi
5:56 AM82 °FClear.3 mph77%30.03 "Hg10 mi
4:56 AM83 °FPassing clouds.6 mph74%30.03 "Hg10 mi
3:56 AM83 °FPassing clouds.6 mph76%30.03 "Hg10 mi
2:56 AM83 °FClear.6 mph76%30.04 "Hg10 mi
1:56 AM83 °FClear.6 mph76%30.03 "Hg10 mi
12:56 AM84 °FPassing clouds.7 mph73%30.05 "Hg10 mi
11:56 PM
Thu, Jul 28
84 °FClear.7 mph75%30.05 "Hg10 mi
10:56 PM84 °FPassing clouds.3 mph73%30.06 "Hg10 mi
8:56 PM85 °FPassing clouds.8 mph73%30.04 "Hg10 mi
7:56 PM85 °FPassing clouds.8 mph73%30.03 "Hg10 mi
6:56 PM86 °FSunny.6 mph68%30.01 "Hg10 mi
1:56 PM89 °FPassing clouds.8 mph68%30.06 "Hg10 mi
Weather by CustomWeather, © 2016

See weather overviewHow to use our weather pages